Home > Weather > Arviat > Past weeks

Flag for Canada Past Weather in Arviat, Nunavut, Canada — Yesterday and Last 2 Weeks

Now
45 °F

Passing clouds.


Feels Like: N/A
Forecast: 35 / 63 °F
Wind: N/A

Location: Arviat Airport

Current Time: Jun 29, 2016 at 9:40:38 AM

Latest Report: Jun 29, 2016 at 9:00 AM


Visibility: 15 mi

Pressure: 30.19 "Hg

Humidity: 93%

Dew Point: 43 °F

Location of ArviatLocation

Past Weather in Arviat — Graph

°F

Arviat Temperature Yesterday

Maximum temperature yesterday: 55 °F (at 12:00 AM)
Minimum temperature yesterday: 41 °F (at 8:00 AM)
Average temperature yesterday: 45 °F

High & Low Weather Summary for the Past Weeks

 TemperatureHumidityPressure
High63 °F (Jun 17, 7:00 PM)100% (Jun 14, 8:00 AM)30.20 "Hg (Jun 14, 8:00 AM)
Low36 °F (Jun 14, 8:00 AM)45% (Jun 24, 11:00 AM)29.18 "Hg (Jun 17, 7:00 PM)
Average45 °F84%29.80 "Hg
* Reported Jun 14 8:00 AM — Jun 29 8:00 AM, Arviat, Weather by CustomWeather, © 2016

Note: Actual official high and low records may vary slightly from our data, if they occured in-between our weather recording intervals... More about our weather records

Advertising

Arviat Weather History for the Previous 24 Hours

Scroll right to see more
 ConditionsComfort  
Time TempWeatherWind HumidityBarometerVisibility
8:00 AM
Wed, Jun 29
41 °FFog.6 mph100%30.20 "Hg1 mi
7:00 AM39 °FFog.6 mph100%30.19 "Hg0 mi
6:00 AM37 °FLight rain. Fog.9 mph100%30.18 "Hg0 mi
5:00 AM37 °FLight rain. Fog.8 mph100%30.17 "Hg0 mi
4:00 AM37 °FLight rain. Fog.8 mph100%30.16 "Hg1 mi
3:00 AM37 °FLight rain. Fog.9 mph100%30.16 "Hg0 mi
2:00 AM37 °FLight rain. Fog.9 mph100%30.15 "Hg1 mi
1:03 AM39 °FFog.12 mph100%30.14 "Hg5 mi
1:00 AM39 °FMostly cloudy.12 mph100%30.14 "Hg9 mi
12:00 AM39 °FOvercast.10 mph100%30.14 "Hg9 mi
11:00 PM
Tue, Jun 28
41 °FOvercast.12 mph93%30.13 "Hg9 mi
10:00 PM41 °FSunny.12 mph93%30.12 "Hg9 mi
9:00 PM41 °FSunny.13 mph93%30.11 "Hg9 mi
8:00 PM43 °FSunny.15 mph87%30.10 "Hg9 mi
7:00 PM45 °FSunny.17 mph81%30.09 "Hg9 mi
6:00 PM45 °FSunny.17 mph87%30.08 "Hg9 mi
4:00 PM41 °FLow clouds.20 mph93%30.06 "Hg10 mi
3:00 PM41 °FLow clouds.18 mph93%30.05 "Hg8 mi
2:00 PM43 °FFog.18 mph93%30.03 "Hg6 mi
1:00 PM41 °FLow clouds.20 mph93%30.01 "Hg8 mi
12:00 PM43 °FLow clouds.20 mph93%30.00 "Hg12 mi
11:00 AM43 °FMostly cloudy.20 mph93%29.99 "Hg12 mi
10:00 AM41 °FMostly cloudy.21 mph100%29.98 "Hg10 mi
9:53 AM41 °FFog.20 mph100%29.97 "Hg3 mi
9:00 AM43 °FFog.15 mph100%29.96 "Hg1 mi
Weather by CustomWeather, © 2016

See weather overviewHow to use our weather pages